QPF
0.00 0.01 0.01 0.00 0.00 0.00 0.01 0.01 0.01 0.01 0.01 0.02 0.02 0.02 0.01 0.00 0.00 0.00 0.00 0.00 0.00 0.01 0.01 0.03 0.03 0.00 0.01 0.00 0.00 0.00 0.02 0.00 0.02 0.05 0.00 0.00 0.00 0.00 0.00 0.00 0.00 0.00 0.00 0.00 0.00 0.00 0.00
0.01 0.01 0.00 0.00 0.00 0.01 0.02 0.01 0.01 0.02 0.03 0.04 0.03 0.02 0.01 0.00 0.00 0.00 0.00 0.00 0.01 0.00 0.00 0.02 0.01 0.01 0.01 0.00 0.00 0.00 0.03 0.02 0.02 0.03 0.00 0.00 0.00 0.00 0.00 0.00 0.00 0.00 0.00 0.00 0.00 0.00 0.00
0.01 0.00 0.00 0.01 0.01 0.01 0.01 0.01 0.01 0.02 0.03 0.02 0.02 0.03 0.01 0.01 0.01 0.01 0.01 0.01 0.01 0.00 0.00 0.02 0.02 0.00 0.00 0.00 0.00 0.00 0.01 0.02 0.03 0.02 0.01 0.00 0.01 0.00 0.00 0.00 0.00 0.00 0.00 0.00 0.00 0.00 0.00
0.00 0.00 0.01 0.01 0.01 0.00 0.01 0.01 0.01 0.02 0.01 0.01 0.03 0.02 0.01 0.03 0.03 0.01 0.02 0.02 0.01 0.00 0.00 0.00 0.02 0.01 0.00 0.00 0.00 0.00 0.00 0.00 0.00 0.01 0.03 0.04 0.06 0.00 0.00 0.00 0.00 0.00 0.00 0.00 0.00 0.00 0.00
0.00 0.01 0.01 0.00 0.00 0.01 0.02 0.01 0.01 0.01 0.01 0.03 0.04 0.02 0.03 0.04 0.04 0.02 0.02 0.02 0.00 0.00 0.00 0.02 0.04 0.01 0.00 0.00 0.00 0.00 0.00 0.00 0.01 0.03 0.03 0.05 0.04 0.00 0.00 0.00 0.00 0.00 0.00 0.00 0.00 0.00 0.00
0.01 0.01 0.01 0.00 0.00 0.02 0.02 0.02 0.01 0.01 0.02 0.03 0.04 0.02 0.01 0.02 0.03 0.02 0.00 0.00 0.00 0.00 0.01 0.03 0.03 0.01 0.00 0.00 0.00 0.00 0.00 0.00 0.03 0.05 0.04 0.04 0.02 0.00 0.00 0.00 0.00 0.00 0.00 0.00 0.00 0.00 0.00
0.00 0.00 0.01 0.00 0.01 0.02 0.02 0.01 0.00 0.01 0.03 0.03 0.02 0.01 0.00 0.02 0.04 0.06 0.02 0.00 0.00 0.02 0.03 0.01 0.00 0.00 0.00 0.00 0.00 0.00 0.00 0.01 0.03 0.02 0.00 0.01 0.00 0.00 0.00 0.00 0.00 0.00 0.00 0.00 0.00 0.00 0.00
0.00 0.01 0.01 0.01 0.01 0.01 0.01 0.00 0.01 0.02 0.02 0.01 0.01 0.00 0.01 0.01 0.04 0.05 0.01 0.00 0.00 0.01 0.01 0.00 0.00 0.00 0.00 0.00 0.00 0.00 0.00 0.00 0.01 0.00 0.00 0.00 0.00 0.00 0.00 0.00 0.00 0.00 0.00 0.00 0.00 0.00 0.00
0.00 0.01 0.00 0.01 0.01 0.01 0.00 0.01 0.02 0.02 0.01 0.01 0.00 0.00 0.01 0.01 0.01 0.00 0.00 0.00 0.01 0.00 0.00 0.00 0.01 0.00 0.00 0.00 0.00 0.00 0.00 0.00 0.00 0.00 0.00 0.00 0.00 0.00 0.00 0.00 0.00 0.00 0.00 0.00 0.00 0.00 0.00
0.00 0.00 0.01 0.01 0.01 0.01 0.01 0.01 0.01 0.01 0.01 0.00 0.00 0.00 0.01 0.01 0.01 0.00 0.01 0.00 0.00 0.00 0.00 0.00 0.01 0.01 0.00 0.00 0.00 0.00 0.00 0.00 0.00 0.00 0.00 0.00 0.00 0.00 0.00 0.00 0.00 0.00 0.00 0.00 0.00 0.00 0.00
0.01 0.00 0.01 0.01 0.01 0.01 0.01 0.01 0.01 0.01 0.01 0.00 0.00 0.00 0.01 0.04 0.02 0.00 0.02 0.01 0.00 0.00 0.00 0.00 0.01 0.00 0.00 0.00 0.00 0.01 0.00 0.00 0.00 0.00 0.00 0.00 0.00 0.00 0.00 0.00 0.00 0.00 0.00 0.00 0.00 0.00 0.00
0.00 0.00 0.01 0.01 0.01 0.01 0.01 0.00 0.01 0.01 0.00 0.00 0.01 0.01 0.05 0.03 0.01 0.00 0.01 0.00 0.00 0.00 0.00 0.00 0.00 0.01 0.01 0.00 0.00 0.00 0.00 0.00 0.00 0.00 0.00 0.00 0.00 0.00 0.00 0.00 0.00 0.00 0.00 0.00 0.00 0.00 0.00
0.00 0.00 0.01 0.02 0.02 0.01 0.01 0.01 0.00 0.00 0.01 0.01 0.01 0.02 0.05 0.04 0.01 0.01 0.00 0.00 0.00 0.00 0.00 0.00 0.00 0.01 0.01 0.00 0.00 0.00 0.00 0.00 0.00 0.00 0.00 0.00 0.00 0.00 0.00 0.00 0.00 0.00 0.00 0.00 0.00 0.00 0.00
0.00 0.00 0.01 0.01 0.01 0.01 0.01 0.00 0.00 0.00 0.00 0.01 0.01 0.01 0.03 0.04 0.01 0.01 0.00 0.00 0.00 0.00 0.00 0.00 0.00 0.01 0.01 0.00 0.00 0.00 0.00 0.00 0.00 0.00 0.00 0.00 0.00 0.00 0.00 0.00 0.00 0.00 0.00 0.00 0.00 0.00 0.00
0.00 0.00 0.01 0.01 0.01 0.01 0.01 0.00 0.00 0.00 0.00 0.02 0.01 0.00 0.02 0.01 0.01 0.00 0.00 0.00 0.00 0.00 0.00 0.01 0.00 0.00 0.01 0.00 0.00 0.00 0.00 0.00 0.00 0.00 0.00 0.00 0.00 0.00 0.00 0.00 0.00 0.00 0.00 0.00 0.00 0.00 0.00
0.00 0.00 0.00 0.00 0.00 0.00 0.01 0.00 0.00 0.00 0.01 0.03 0.00 0.00 0.01 0.00 0.00 0.00 0.00 0.01 0.00 0.00 0.00 0.00 0.00 0.00 0.00 0.00 0.00 0.00 0.00 0.00 0.00 0.00 0.00 0.00 0.00 0.00 0.00 0.00 0.00 0.00 0.00 0.00 0.00 0.00 0.00
0.00 0.00 0.01 0.01 0.00 0.00 0.00 0.00 0.00 0.00 0.01 0.02 0.00 0.00 0.01 0.00 0.00 0.00 0.00 0.00 0.00 0.00 0.00 0.00 0.00 0.00 0.00 0.00 0.00 0.00 0.00 0.00 0.00 0.00 0.00 0.00 0.00 0.00 0.00 0.00 0.00 0.00 0.00 0.00 0.00 0.00 0.00
0.00 0.00 0.01 0.00 0.00 0.00 0.00 0.00 0.00 0.00 0.01 0.00 0.00 0.00 0.00 0.00 0.00 0.00 0.00 0.00 0.00 0.00 0.00 0.00 0.00 0.00 0.00 0.00 0.00 0.00 0.00 0.00 0.00 0.00 0.00 0.00 0.00 0.00 0.00 0.00 0.00 0.00 0.00 0.00 0.00 0.00 0.00
0.00 0.00 0.00 0.01 0.00 0.00 0.00 0.00 0.00 0.00 0.00 0.00 0.00 0.00 0.00 0.00 0.00 0.00 0.00 0.00 0.00 0.02 0.01 0.00 0.00 0.00 0.00 0.00 0.00 0.00 0.00 0.00 0.00 0.00 0.00 0.00 0.00 0.00 0.00 0.00 0.00 0.00 0.00 0.00 0.00 0.00 0.00
0.00 0.00 0.00 0.00 0.00 0.00 0.00 0.00 0.00 0.00 0.00 0.00 0.00 0.00 0.00 0.00 0.00 0.00 0.00 0.00 0.00 0.00 0.00 0.00 0.00 0.00 0.00 0.00 0.00 0.00 0.00 0.00 0.00 0.00 0.00 0.00 0.00 0.00 0.00 0.00 0.00 0.00 0.00 0.00 0.00 0.00 0.00
0.00 0.00 0.00 0.00 0.00 0.00 0.00 0.00 0.00 0.00 0.00 0.00 0.00 0.00 0.00 0.00 0.00 0.00 0.00 0.00 0.00 0.00 0.00 0.00 0.00 0.00 0.00 0.00 0.00 0.00 0.00 0.00 0.00 0.00 0.00 0.00 0.00 0.00 0.00 0.00 0.00 0.00 0.00 0.00 0.00 0.00 0.00
0.00 0.00 0.00 0.00 0.00 0.00 0.00 0.00 0.00 0.00 0.00 0.00 0.00 0.00 0.00 0.00 0.00 0.00 0.00 0.00 0.00 0.00 0.00 0.00 0.00 0.00 0.00 0.00 0.00 0.00 0.00 0.00 0.00 0.00 0.00 0.00 0.00 0.00 0.00 0.00 0.00 0.00 0.00 0.00 0.00 0.00 0.00
0.00 0.00 0.00 0.00 0.00 0.00 0.00 0.00 0.00 0.00 0.00 0.00 0.00 0.00 0.00 0.00 0.00 0.00 0.00 0.00 0.00 0.00 0.00 0.00 0.00 0.00 0.00 0.00 0.00 0.00 0.00 0.00 0.00 0.00 0.00 0.00 0.00 0.00 0.00 0.00 0.00 0.00 0.00 0.00 0.00 0.00 0.00
0.00 0.00 0.00 0.00 0.00 0.00 0.00 0.00 0.00 0.00 0.00 0.00 0.00 0.00 0.00 0.00 0.00 0.00 0.00 0.00 0.00 0.00 0.00 0.00 0.00 0.00 0.00 0.00 0.00 0.00 0.00 0.00 0.00 0.00 0.00 0.00 0.00 0.00 0.00 0.00 0.00 0.00 0.00 0.00 0.00 0.00 0.00
0.00 0.00 0.00 0.00 0.00 0.00 0.00 0.00 0.00 0.00 0.00 0.00 0.00 0.00 0.00 0.00 0.00 0.00 0.00 0.00 0.00 0.00 0.00 0.00 0.00 0.00 0.00 0.00 0.00 0.00 0.00 0.00 0.00 0.00 0.00 0.00 0.00 0.00 0.00 0.00 0.00 0.00 0.00 0.00 0.00 0.00 0.00
0.00 0.00 0.00 0.00 0.00 0.00 0.00 0.00 0.00 0.00 0.00 0.00 0.00 0.00 0.00 0.00 0.00 0.00 0.00 0.00 0.00 0.00 0.00 0.00 0.00 0.00 0.00 0.00 0.00 0.00 0.00 0.00 0.00 0.00 0.00 0.00 0.00 0.00 0.00 0.00 0.00 0.00 0.00 0.00 0.00 0.00 0.00
0.00 0.01 0.00 0.00 0.00 0.00 0.00 0.00 0.00 0.00 0.00 0.00 0.00 0.00 0.00 0.00 0.00 0.00 0.00 0.00 0.00 0.00 0.00 0.01 0.00 0.00 0.00 0.00 0.00 0.00 0.00 0.00 0.00 0.00 0.00 0.01 0.01 0.00 0.00 0.00 0.00 0.00 0.00 0.00 0.00 0.00 0.00
0.00 0.01 0.00 0.00 0.00 0.00 0.00 0.00 0.00 0.00 0.00 0.00 0.00 0.00 0.00 0.00 0.00 0.00 0.00 0.00 0.00 0.00 0.00 0.00 0.00 0.00 0.00 0.00 0.00 0.00 0.00 0.00 0.00 0.00 0.00 0.00 0.00 0.00 0.00 0.00 0.00 0.00 0.00 0.00 0.00 0.00 0.00
0.00 0.01 0.00 0.00 0.01 0.00 0.00 0.00 0.00 0.00 0.00 0.00 0.00 0.00 0.00 0.00 0.00 0.00 0.00 0.00 0.00 0.00 0.00 0.00 0.00 0.00 0.00 0.00 0.00 0.00 0.00 0.00 0.00 0.00 0.00 0.00 0.00 0.00 0.00 0.00 0.00 0.00 0.00 0.00 0.00 0.00 0.00
MSLP
1021.85 1021.37 1021.00 1020.66 1020.18 1019.61 1019.14 1018.86 1018.46 1018.01 1017.44 1017.04 1016.72 1016.46 1016.16 1015.65 1015.18 1014.81 1014.51 1014.21 1013.81 1013.53 1013.11 1012.77 1012.54 1012.32 1013.16 1013.25 1011.28 1009.71 1009.17 1009.55 1010.37 1011.23 1011.68 1012.40 1012.96 1013.11 1013.32 1013.37 1013.58 1013.59 1013.31 1012.85 1012.51 1012.44 1012.42
1021.75 1021.18 1020.79 1020.26 1019.90 1019.46 1019.11 1018.66 1018.11 1017.85 1017.50 1016.94 1016.29 1015.88 1015.62 1015.21 1014.79 1014.51 1014.13 1013.70 1013.42 1013.09 1012.70 1012.30 1012.25 1011.73 1012.41 1012.33 1010.11 1009.70 1009.57 1009.87 1010.33 1011.09 1011.69 1012.21 1012.38 1012.62 1012.83 1012.86 1013.25 1012.97 1013.01 1012.89 1012.53 1012.51 1012.48
1021.78 1021.14 1020.66 1020.20 1019.80 1019.33 1018.84 1018.36 1017.96 1017.30 1016.89 1016.29 1015.77 1015.59 1015.28 1014.82 1014.48 1014.19 1013.67 1013.38 1013.02 1012.61 1012.27 1011.91 1011.89 1011.47 1011.41 1010.85 1009.91 1009.51 1009.79 1010.01 1010.31 1010.93 1011.40 1011.81 1012.07 1012.45 1012.50 1012.85 1012.77 1012.85 1013.19 1013.16 1012.72 1012.47 1012.41
1021.74 1021.02 1020.62 1020.17 1019.72 1019.01 1018.70 1018.15 1017.72 1017.05 1016.49 1016.08 1015.64 1015.28 1014.78 1014.43 1014.13 1013.80 1013.41 1013.04 1012.69 1012.19 1011.89 1011.54 1011.45 1011.51 1010.54 1009.82 1009.86 1010.05 1009.88 1010.15 1010.37 1010.72 1011.16 1011.47 1012.11 1012.44 1012.43 1012.71 1012.85 1013.16 1013.49 1013.46 1012.70 1012.37 1012.29
1021.62 1021.13 1020.58 1020.09 1019.40 1018.78 1018.37 1017.85 1017.40 1016.70 1016.12 1015.69 1015.30 1014.95 1014.46 1014.10 1013.83 1013.55 1013.08 1012.54 1011.97 1011.54 1011.34 1011.03 1011.06 1010.71 1010.24 1009.26 1009.83 1009.74 1009.88 1010.19 1010.46 1010.84 1011.39 1011.74 1012.33 1012.80 1012.75 1013.06 1013.45 1013.69 1013.97 1013.80 1013.30 1012.40 1012.42
1021.37 1020.95 1020.37 1019.83 1019.19 1018.80 1018.22 1017.54 1016.91 1016.27 1015.80 1015.41 1015.00 1014.51 1014.09 1013.66 1013.41 1013.21 1012.62 1012.03 1010.97 1010.96 1010.89 1010.94 1010.45 1011.13 1010.10 1009.24 1009.15 1009.60 1009.95 1010.21 1010.62 1011.15 1012.00 1012.31 1012.39 1012.87 1013.07 1013.29 1013.54 1013.96 1014.04 1013.89 1013.56 1012.64 1012.36
1021.41 1020.85 1020.25 1019.65 1019.26 1018.53 1017.84 1017.24 1016.56 1016.10 1015.61 1015.17 1014.58 1014.23 1013.82 1013.35 1012.91 1012.87 1012.61 1012.11 1011.34 1011.39 1010.72 1010.49 1010.68 1009.82 1008.87 1008.78 1009.05 1009.51 1009.83 1010.36 1010.63 1011.34 1011.93 1012.37 1012.77 1012.74 1012.78 1013.22 1013.56 1013.80 1013.95 1014.11 1013.62 1013.21 1013.07
1021.41 1020.73 1020.04 1019.60 1018.96 1018.36 1017.79 1017.09 1016.52 1015.96 1015.42 1014.95 1014.35 1013.98 1013.49 1013.00 1012.62 1012.44 1012.66 1012.48 1012.03 1012.13 1011.37 1010.68 1010.59 1010.18 1008.90 1008.47 1009.14 1009.48 1009.70 1010.24 1010.76 1011.57 1012.09 1012.80 1012.59 1012.74 1013.10 1013.38 1013.80 1014.18 1014.25 1014.32 1013.93 1013.70 1013.62
1021.26 1020.61 1019.87 1019.42 1018.77 1018.28 1017.60 1017.00 1016.33 1015.59 1015.11 1014.62 1014.04 1013.50 1013.11 1012.70 1012.23 1012.25 1012.51 1012.19 1011.91 1011.71 1011.57 1010.73 1010.76 1009.74 1008.71 1008.52 1008.88 1009.37 1009.81 1009.97 1010.73 1011.50 1012.17 1012.56 1012.45 1012.53 1013.03 1013.45 1013.90 1014.21 1014.44 1014.77 1014.97 1014.48 1014.27
1021.10 1020.37 1019.83 1019.28 1018.58 1017.98 1017.39 1016.78 1016.15 1015.33 1014.84 1014.24 1013.81 1013.19 1012.79 1012.43 1012.26 1012.24 1011.89 1011.51 1011.78 1011.86 1011.77 1010.76 1010.21 1008.98 1008.78 1008.51 1009.19 1009.50 1009.68 1009.79 1010.62 1011.41 1012.20 1012.56 1012.31 1012.47 1012.94 1013.30 1013.63 1014.25 1014.69 1015.05 1015.54 1015.83 1016.19
1020.95 1020.42 1019.79 1019.17 1018.44 1017.87 1017.12 1016.56 1015.77 1014.97 1014.45 1013.85 1013.31 1012.76 1012.30 1012.14 1012.17 1012.08 1011.75 1011.54 1011.85 1012.18 1011.41 1010.11 1009.56 1008.73 1008.61 1008.93 1009.22 1009.81 1009.78 1009.80 1010.58 1011.05 1012.22 1012.69 1012.54 1012.79 1013.04 1013.30 1013.65 1014.60 1015.03 1015.77 1016.50 1017.13 1017.36
1021.04 1020.42 1019.66 1019.12 1018.34 1017.67 1016.97 1016.37 1015.57 1014.91 1014.13 1013.36 1012.65 1012.06 1011.53 1011.07 1011.17 1011.30 1011.55 1011.91 1012.20 1012.33 1011.22 1009.86 1009.03 1008.89 1009.24 1009.55 1009.65 1010.06 1010.19 1010.37 1010.77 1011.61 1012.36 1012.89 1012.79 1013.07 1013.19 1013.46 1013.77 1014.73 1015.89 1016.88 1017.62 1018.28 1018.25
1020.67 1020.30 1019.52 1018.93 1018.24 1017.51 1016.79 1016.17 1015.42 1014.58 1013.70 1012.86 1011.83 1010.96 1010.89 1010.80 1011.05 1010.99 1011.69 1012.28 1012.22 1011.66 1011.02 1009.81 1009.05 1009.34 1009.64 1010.02 1010.32 1010.64 1011.02 1011.28 1011.53 1012.50 1013.30 1013.68 1013.72 1013.49 1013.41 1014.10 1014.59 1015.39 1016.94 1018.58 1019.32 1019.61 1018.13
1020.72 1020.09 1019.39 1018.79 1018.11 1017.26 1016.70 1015.96 1015.15 1014.27 1013.55 1012.29 1011.15 1010.86 1010.93 1010.98 1010.73 1011.40 1012.04 1012.29 1011.97 1011.05 1010.18 1009.34 1009.17 1009.73 1010.11 1010.57 1011.09 1011.42 1011.69 1012.04 1012.32 1012.67 1013.73 1014.28 1014.62 1013.86 1013.79 1014.13 1014.87 1015.92 1017.19 1018.70 1019.43 1019.85 1018.73
1020.61 1020.05 1019.38 1018.75 1018.03 1017.27 1016.60 1015.92 1014.99 1014.18 1013.24 1012.16 1011.56 1011.58 1011.73 1011.87 1011.59 1011.57 1012.15 1011.94 1011.47 1010.62 1009.58 1008.84 1009.74 1010.11 1010.70 1011.05 1011.30 1011.67 1012.21 1012.51 1012.63 1012.81 1013.47 1014.43 1014.31 1013.91 1013.98 1014.22 1014.88 1016.10 1017.24 1018.17 1019.24 1020.24 1019.69
1020.50 1019.93 1019.18 1018.62 1018.07 1017.29 1016.60 1015.95 1015.01 1014.07 1012.92 1012.21 1012.54 1012.52 1012.60 1012.35 1012.19 1012.54 1012.89 1011.76 1011.06 1010.11 1009.34 1009.26 1009.71 1010.29 1010.72 1011.30 1011.69 1011.94 1012.46 1012.60 1012.58 1012.68 1013.06 1013.64 1014.30 1014.25 1014.30 1014.44 1014.91 1015.56 1016.84 1018.47 1019.63 1020.40 1019.50
1020.18 1019.95 1019.14 1018.62 1018.08 1017.32 1016.70 1016.02 1015.14 1013.95 1012.69 1012.13 1012.56 1012.88 1013.10 1012.69 1012.52 1012.96 1013.08 1012.08 1011.11 1009.97 1009.57 1009.26 1009.54 1009.90 1010.56 1011.18 1011.61 1012.13 1012.53 1012.37 1012.28 1012.54 1012.93 1013.21 1014.15 1015.19 1014.84 1014.91 1015.25 1016.08 1016.82 1017.82 1018.85 1019.52 1019.50
1020.18 1019.75 1019.23 1018.72 1018.18 1017.39 1016.81 1016.22 1015.42 1014.11 1013.15 1012.98 1013.31 1013.50 1013.18 1012.82 1013.11 1013.07 1012.81 1012.44 1011.07 1010.40 1009.30 1009.01 1009.09 1009.61 1010.36 1011.01 1011.62 1011.93 1012.23 1011.95 1011.85 1012.20 1013.01 1013.34 1014.32 1015.52 1015.47 1015.29 1015.34 1015.77 1016.52 1017.47 1018.58 1019.18 1019.25
1020.14 1019.68 1019.29 1018.76 1018.30 1017.52 1016.86 1016.41 1015.67 1014.56 1013.76 1013.71 1013.82 1013.73 1013.25 1013.29 1013.40 1012.97 1012.58 1011.79 1010.89 1010.07 1009.31 1008.61 1008.91 1009.17 1009.86 1010.71 1011.52 1011.67 1011.91 1011.76 1011.69 1012.11 1012.68 1013.39 1014.62 1015.84 1016.05 1016.11 1015.81 1016.03 1016.40 1016.87 1017.73 1018.19 1018.14
1020.06 1019.75 1019.28 1018.83 1018.39 1017.73 1016.97 1016.41 1015.68 1014.71 1013.92 1014.02 1014.06 1014.25 1013.72 1013.33 1013.35 1013.02 1011.98 1011.42 1010.45 1009.18 1008.69 1008.37 1008.73 1009.07 1009.86 1010.56 1010.93 1011.80 1012.10 1012.17 1012.02 1012.24 1012.70 1013.42 1014.90 1015.65 1015.96 1015.71 1015.60 1015.93 1015.84 1016.34 1017.14 1017.71 1016.50
1019.92 1019.62 1019.28 1018.88 1018.41 1017.94 1017.27 1016.61 1015.86 1014.88 1013.98 1013.64 1014.32 1014.44 1014.19 1013.52 1013.03 1012.51 1011.82 1011.20 1010.23 1009.53 1009.01 1008.99 1009.54 1009.67 1010.11 1010.83 1011.36 1011.84 1012.28 1012.61 1012.59 1012.76 1013.25 1014.02 1015.35 1016.03 1016.03 1015.71 1015.56 1015.39 1015.42 1015.72 1016.22 1015.24 1015.28
1019.91 1019.55 1019.23 1018.88 1018.49 1018.11 1017.56 1016.91 1016.25 1015.22 1014.04 1014.58 1014.87 1014.78 1014.04 1013.55 1013.00 1012.53 1011.98 1011.18 1010.60 1010.21 1009.87 1010.00 1010.26 1010.40 1010.37 1011.05 1011.35 1011.63 1012.03 1012.62 1012.91 1013.38 1013.79 1014.49 1015.87 1016.55 1016.25 1015.36 1015.15 1014.99 1014.47 1014.52 1014.47 1014.18 1013.73
1019.79 1019.43 1019.22 1018.88 1018.61 1018.18 1017.89 1017.40 1016.82 1015.95 1015.28 1015.24 1015.39 1014.95 1014.69 1013.57 1013.06 1012.57 1011.91 1011.21 1010.81 1010.50 1010.55 1010.48 1010.63 1010.74 1011.19 1011.62 1011.40 1011.51 1011.62 1012.24 1012.66 1013.27 1013.97 1014.76 1015.87 1016.93 1016.53 1015.44 1014.73 1013.76 1012.14 1012.25 1012.36 1012.15 1011.77
1019.61 1019.27 1019.07 1018.92 1018.64 1018.25 1017.91 1017.56 1017.29 1016.64 1016.19 1016.22 1015.75 1015.53 1015.04 1014.20 1013.35 1012.42 1011.73 1011.26 1010.98 1010.83 1011.12 1011.38 1011.11 1011.30 1011.91 1011.65 1011.77 1011.95 1012.35 1012.73 1013.01 1013.26 1013.54 1014.76 1015.84 1016.71 1016.36 1015.21 1013.86 1011.14 1010.06 1010.02 1010.52 1010.16 1010.28
1019.38 1019.05 1018.87 1018.74 1018.63 1018.22 1017.96 1017.57 1017.33 1017.00 1016.68 1016.66 1016.30 1015.99 1015.45 1014.71 1013.74 1012.65 1011.86 1011.45 1011.30 1011.27 1011.50 1011.90 1012.05 1012.21 1011.99 1012.00 1012.33 1012.72 1013.12 1013.34 1013.46 1013.53 1013.87 1014.33 1015.51 1016.09 1015.90 1014.96 1012.61 1010.31 1009.47 1009.36 1009.73 1009.50 1009.30
1019.28 1018.84 1018.62 1018.49 1018.41 1018.11 1017.85 1017.60 1017.34 1017.02 1016.64 1016.45 1016.26 1015.97 1015.77 1015.25 1013.75 1012.86 1012.04 1011.53 1011.60 1011.64 1011.81 1012.14 1012.31 1012.21 1012.22 1012.54 1012.72 1012.82 1013.05 1013.15 1013.50 1013.72 1013.95 1014.40 1014.89 1015.46 1015.08 1014.32 1012.25 1009.88 1009.01 1008.91 1009.24 1009.44 1009.11
1019.04 1018.67 1018.38 1018.23 1018.15 1017.89 1017.62 1017.38 1017.18 1016.95 1016.74 1016.61 1016.41 1016.19 1016.03 1015.29 1013.55 1012.84 1011.95 1011.42 1011.14 1011.45 1011.85 1012.23 1012.46 1012.53 1012.64 1012.95 1013.12 1013.09 1012.90 1012.51 1012.97 1013.10 1013.66 1014.14 1014.47 1014.62 1014.45 1013.64 1011.49 1009.53 1008.97 1009.02 1009.33 1009.57 1009.05
1018.64 1018.42 1018.09 1017.88 1017.84 1017.58 1017.36 1017.20 1016.88 1016.77 1016.62 1016.76 1016.54 1016.08 1016.11 1015.59 1014.07 1012.94 1012.07 1011.42 1011.09 1011.16 1011.73 1012.55 1012.84 1012.89 1013.09 1013.15 1013.23 1013.12 1013.17 1012.42 1012.27 1012.31 1012.64 1013.11 1013.60 1013.45 1013.36 1012.80 1010.96 1008.81 1008.96 1009.30 1008.96 1008.88 1009.02
1018.33 1018.09 1017.83 1017.63 1017.47 1017.30 1017.10 1016.93 1016.70 1016.49 1016.39 1016.35 1016.62 1016.15 1016.07 1015.94 1014.45 1013.30 1012.31 1011.68 1011.36 1011.11 1011.45 1012.17 1012.58 1012.70 1012.69 1012.96 1013.20 1013.33 1013.19 1012.71 1012.28 1012.15 1012.12 1012.19 1011.70 1011.62 1011.46 1010.45 1009.11 1008.62 1008.65 1008.82 1009.07 1009.30 1009.33
Thickness
5556 5554 5550 5543 5538 5533 5528 5522 5516 5510 5506 5500 5493 5482 5473 5468 5469 5475 5476 5483 5490 5500 5510 5520 5527 5535 5535 5537 5558 5580 5590 5593 5594 5593 5596 5596 5595 5602 5602 5609 5613 5615 5625 5638 5646 5647 5650
5552 5548 5544 5539 5532 5526 5518 5510 5505 5496 5486 5478 5468 5455 5441 5436 5434 5446 5455 5462 5474 5486 5499 5511 5519 5529 5531 5534 5559 5571 5579 5584 5586 5586 5588 5592 5596 5600 5604 5608 5606 5617 5621 5626 5637 5641 5644
5544 5541 5537 5531 5524 5516 5509 5501 5493 5485 5473 5461 5445 5426 5415 5411 5408 5413 5427 5442 5457 5473 5488 5502 5511 5521 5529 5537 5554 5564 5570 5574 5578 5581 5583 5588 5593 5596 5602 5602 5612 5614 5611 5618 5628 5637 5636
5537 5535 5530 5524 5516 5510 5501 5493 5482 5471 5457 5440 5422 5408 5402 5398 5396 5398 5406 5419 5438 5459 5476 5492 5502 5510 5529 5539 5547 5553 5562 5567 5572 5578 5580 5585 5586 5590 5595 5599 5602 5600 5600 5598 5622 5629 5632
5531 5526 5523 5517 5510 5503 5493 5483 5471 5458 5443 5426 5411 5400 5394 5392 5392 5393 5398 5407 5425 5449 5468 5484 5496 5509 5520 5538 5541 5548 5555 5558 5564 5569 5572 5578 5576 5578 5586 5581 5581 5587 5580 5589 5601 5621 5624
5527 5522 5518 5510 5504 5493 5484 5473 5462 5447 5432 5418 5406 5396 5392 5393 5394 5395 5399 5403 5421 5441 5460 5474 5491 5495 5516 5531 5539 5544 5548 5555 5557 5559 5559 5564 5571 5568 5572 5574 5572 5575 5579 5586 5592 5612 5619
5521 5518 5513 5505 5496 5487 5478 5466 5453 5436 5422 5411 5405 5397 5395 5397 5398 5397 5398 5400 5409 5426 5454 5471 5483 5504 5523 5530 5534 5538 5544 5547 5552 5552 5552 5558 5560 5565 5571 5575 5575 5579 5581 5582 5592 5606 5606
5516 5512 5508 5499 5491 5481 5471 5458 5443 5428 5418 5408 5404 5399 5400 5401 5400 5398 5396 5395 5404 5417 5446 5469 5479 5493 5517 5528 5527 5533 5542 5543 5546 5543 5547 5549 5552 5563 5566 5566 5567 5569 5573 5575 5584 5596 5600
5511 5507 5504 5495 5487 5477 5467 5453 5438 5426 5418 5409 5405 5403 5401 5401 5401 5399 5395 5396 5401 5421 5439 5466 5475 5494 5513 5524 5526 5530 5538 5544 5542 5542 5543 5545 5557 5563 5562 5563 5563 5563 5566 5570 5572 5581 5589
5507 5504 5498 5491 5484 5476 5463 5449 5434 5423 5417 5411 5403 5401 5400 5400 5399 5396 5397 5398 5400 5418 5437 5465 5477 5498 5510 5522 5520 5531 5537 5542 5541 5541 5542 5543 5556 5558 5555 5559 5562 5559 5564 5567 5567 5567 5560
5503 5499 5494 5488 5481 5473 5463 5447 5432 5423 5418 5411 5405 5399 5398 5397 5396 5393 5397 5396 5404 5419 5451 5474 5485 5502 5513 5517 5523 5523 5535 5541 5535 5543 5541 5538 5546 5550 5550 5556 5561 5556 5561 5559 5558 5549 5548
5499 5494 5491 5484 5479 5471 5461 5446 5431 5422 5417 5414 5409 5405 5402 5404 5402 5399 5397 5398 5409 5419 5451 5474 5490 5498 5505 5512 5519 5523 5530 5537 5541 5539 5538 5537 5547 5547 5549 5552 5558 5555 5549 5541 5539 5527 5507
5498 5492 5487 5482 5478 5470 5460 5446 5430 5422 5419 5417 5416 5415 5410 5407 5403 5404 5403 5409 5415 5431 5444 5475 5494 5503 5507 5512 5513 5519 5522 5524 5523 5517 5514 5530 5533 5541 5548 5541 5548 5546 5520 5482 5497 5492 5528
5494 5491 5486 5481 5477 5470 5461 5448 5432 5423 5416 5420 5421 5416 5412 5408 5410 5413 5417 5423 5430 5450 5461 5483 5503 5507 5506 5508 5511 5516 5518 5516 5525 5520 5501 5507 5503 5533 5541 5541 5538 5539 5525 5495 5523 5528 5530
5490 5487 5484 5480 5476 5469 5462 5449 5434 5424 5418 5420 5418 5413 5410 5410 5419 5425 5424 5431 5446 5454 5468 5498 5501 5503 5497 5502 5512 5514 5516 5515 5521 5527 5513 5495 5517 5538 5539 5544 5542 5535 5506 5530 5512 5495 5477
5488 5486 5483 5479 5474 5468 5462 5451 5436 5425 5422 5422 5414 5414 5417 5422 5426 5427 5428 5456 5461 5465 5491 5502 5490 5497 5498 5500 5504 5513 5515 5518 5525 5528 5531 5529 5508 5536 5539 5544 5545 5540 5535 5501 5467 5465 5506
5488 5482 5480 5477 5473 5468 5463 5453 5439 5432 5430 5431 5429 5428 5427 5434 5437 5433 5435 5452 5459 5489 5497 5506 5499 5509 5506 5506 5508 5511 5512 5523 5526 5529 5532 5538 5514 5523 5536 5531 5527 5530 5526 5529 5510 5501 5488
5485 5481 5477 5475 5471 5468 5463 5454 5443 5443 5445 5447 5439 5443 5444 5446 5441 5442 5451 5450 5473 5487 5504 5511 5514 5515 5511 5510 5512 5517 5511 5525 5530 5532 5528 5536 5518 5502 5519 5534 5535 5536 5531 5525 5484 5502 5487
5482 5479 5474 5473 5470 5468 5463 5457 5449 5452 5451 5451 5450 5450 5455 5452 5451 5457 5455 5471 5484 5497 5503 5521 5518 5523 5520 5512 5510 5517 5522 5527 5534 5534 5532 5533 5514 5486 5524 5520 5528 5522 5527 5528 5514 5509 5470
5478 5476 5472 5472 5469 5467 5463 5461 5460 5465 5465 5460 5464 5449 5458 5464 5463 5466 5478 5485 5501 5517 5521 5525 5523 5525 5522 5521 5523 5513 5517 5524 5530 5533 5537 5533 5510 5506 5504 5514 5515 5501 5526 5523 5507 5487 5499
5475 5473 5470 5470 5468 5468 5464 5465 5468 5472 5473 5474 5467 5469 5470 5478 5484 5486 5494 5493 5512 5515 5522 5525 5522 5525 5524 5520 5519 5516 5515 5518 5524 5529 5529 5525 5508 5515 5517 5523 5528 5525 5523 5519 5497 5529 5513
5470 5469 5467 5468 5467 5467 5466 5466 5468 5472 5480 5473 5473 5474 5483 5485 5496 5493 5495 5506 5510 5513 5517 5518 5515 5519 5522 5519 5521 5521 5517 5514 5519 5520 5520 5516 5484 5497 5481 5519 5517 5508 5521 5521 5524 5530 5535
5465 5465 5464 5465 5464 5465 5465 5464 5466 5469 5474 5474 5470 5473 5478 5487 5490 5495 5500 5512 5514 5518 5518 5518 5517 5516 5512 5513 5516 5517 5525 5521 5520 5515 5516 5521 5506 5472 5486 5519 5519 5512 5533 5538 5537 5535 5545
5460 5461 5460 5461 5460 5460 5462 5461 5460 5462 5465 5464 5468 5468 5476 5479 5487 5499 5508 5512 5513 5515 5513 5511 5514 5515 5513 5517 5517 5517 5511 5511 5517 5522 5521 5513 5500 5468 5474 5503 5505 5552 5563 5560 5551 5556 5552
5456 5457 5456 5456 5455 5455 5456 5457 5456 5456 5458 5458 5461 5465 5471 5481 5480 5496 5507 5510 5510 5509 5509 5504 5502 5502 5507 5509 5506 5511 5510 5514 5513 5516 5514 5510 5501 5478 5499 5496 5530 5560 5564 5563 5555 5555 5559
5450 5452 5453 5452 5451 5451 5450 5450 5450 5452 5454 5455 5457 5461 5464 5472 5480 5490 5503 5509 5497 5499 5506 5504 5501 5501 5504 5501 5508 5509 5502 5506 5500 5508 5508 5509 5507 5498 5504 5495 5531 5558 5564 5563 5557 5545 5558
5445 5446 5448 5447 5447 5446 5446 5445 5444 5444 5445 5446 5449 5452 5455 5467 5480 5489 5501 5505 5509 5504 5500 5500 5499 5500 5500 5493 5500 5508 5505 5519 5508 5515 5507 5504 5504 5505 5504 5511 5531 5550 5557 5557 5554 5553 5558
5439 5441 5443 5442 5441 5441 5439 5439 5438 5436 5435 5434 5436 5442 5445 5455 5468 5484 5494 5501 5507 5506 5502 5492 5494 5493 5491 5494 5497 5499 5495 5513 5516 5519 5517 5511 5504 5511 5510 5514 5512 5559 5557 5555 5558 5557 5556
5434 5436 5438 5437 5436 5435 5433 5430 5429 5425 5422 5421 5420 5428 5435 5442 5460 5470 5482 5491 5496 5501 5496 5489 5493 5490 5496 5497 5492 5487 5493 5496 5507 5522 5513 5508 5515 5518 5525 5531 5550 5557 5558 5554 5548 5546 5550